STARLINK-4681, 53594

Orbit data source: Space-Track

STARLINK-4681, 53594 is a payload satellite owned by SpaceX/Seattle (US) in LEO that was launched on Sun, 28 Aug 2022 UTC via an FALCON 9 launch vehicle from the Air Force Eastern Test Range (AFETR). Payload-class satellites include a variety of spacecraft equipped with specific instruments for various scientific and technological missions. These include communications satellites like Starlink; space stations such as the ISS; scientific satellites like the Hubble; Earth observation satellites from companies like Planet Labs, Umbra, and HawkEye 360; GPS; miniature CubeSats for education and research; and military/defense satellites.

Loading next visibility...
Identifier
53594, 2022-104G
Orbit
LEO
Country
Flag of USUS
Related business
Manufacturer
SpaceX/Seattle
Mission
Operational Commercial Communications
Bus & Motor
STARLINK, Unknown motor
Mass
300 kg wet, ~290 kg dry
Launch date (UTC)
2022-08-28 (3 years ago)
Launch vehicle
FALCON 9
Launch site
Air Force Eastern Test Range (AFETR)
Object type
Payload
Rocket body
Debris
Shape & HBR
Box + 1 Pan, 10.1 m
Radar Cross Section
13.562 m², Large (>1 m²)

Expand to show TLE details & history
Last TLE update: 12 hours ago

TLE from 12 hours ago
0 STARLINK-4681
1 53594U 22104G   25300.53672420  .00000338  00000-0  39287-4 0  9991
2 53594  53.2168 121.8419 0001463  86.9325 273.1835 15.08854505175986
Epoch: 2025-10-27T12:52Z
TLE epoch observation values (Epoch: 2025-10-27T12:52:52.970Z)
Latitude
-0.00001°
Longitude
-107.51597°
Altitude
540.54 km
Speed
7.593 km/s
True Right ascension
08h 07m 22s
True Declination
0° 00' 00"
Sunlit
Object was in daylight at epoch
Visualization orbit readout
Latitude
Unknown
Longitude
Unknown
Altitude
Unknown
Speed
Unknown
Apparent Right ascension
Unknown
Apparent Declination
Unknown
Sunlit
N/A
Visualization observer readout
Local Sidereal Time
20:23:57
Azimuth
Unknown
Elevation
Unknown
Doppler factor
Unknown
Orbital elements
Apogee altitude
540.956 km
Perigee altitude
538.932 km
Semi-major axis
6,918.081 km
Eccentricity
0.00015
Inclination
53.2168°
RAAN
121.8419°
Arg. of periapsis
86.9325°
True anomaly
273.16676°
Mean anomaly
273.1835°
Eccentric anomaly
273.17513°
Mean motion
3.77194 °/min
Orbital period
95.44 mins
BSTAR
0.000039287
Loading maneuver chart data...
Computing Atmospheric mass density...
Loading historical data...
Loading historical data...
Loading historical data...
Loading historical data...
Loading historical data...
Loading historical data...
Loading historical data...

Documentation

Showing up to 5 results
|